Content
SEND FEEDBACK

Daily
Averages
Monthly
Summary
United States of America

TRUCKEE, CALIFORNIA


Home > North America > United States > California
Elevation: 5966 feet     Latitude: 39 20N     Longitude: 120 11W

WEATHER
 
SELECT A DAY
Number of Records: 282,736;   Date Range: 1/1/95 - 9/20/14
 
SHARE

PRINT THIS DATA

[ ← Previous Day ]
WEATHER ALMANAC - NOVEMBER 1, 2013
[ Next Day → ]
[ °C ]   °F
Weather ElementAverageHighLow
Temperature33 °F62.6 °F (2:45 pm)21.2 °F (5:55 am)
Dewpoint26.1 °F37.4 °F (11:45 am)19.4 °F (3:35 am)
Humidity80.2 %100 % (1:55 am)22 % (3:55 pm)
Barometer30.28 in30.36 in (7:45 am)30.22 in (4:45 pm)
Wind Speed1.6 mph10.4 mph (4:45 pm)
Weather ElementAverage
Visibility6.3 mi
Wind DirectionENE (60.4 °)

Weather ElementTotal
Precipitation---
Heating Degree Days23.1 (Base 65)
Averaged from 49 records on November 1, 2013
WEATHER CONDITIONS BREAKOUT
WIND DIRECTION BREAKOUT
WEATHER BY HOUR - NOVEMBER 1, 2013
[ °C ]   °F
Local TimeTemperatureDewpointHumidityBarometerVisibilityWind DirectionWind SpeedGust SpeedPrecipitationEventsConditions
12:35 AM26.6 °F24.8 °F93 %30.32 in10.0 miENE (70°)4.6 mphClear
12:55 AM24.8 °F23.0 °F93 %30.33 in10.0 miSSW (200°)3.5 mphClear
1:15 AM24.8 °F23.0 °F93 %30.33 in9.0 miSSW (210°)3.5 mphClear
1:35 AM26.6 °F24.8 °F93 %30.32 in3.0 miCalmClear
1:55 AM26.6 °F26.6 °F100 %30.32 in0.8 miCalmMist
2:15 AM26.6 °F24.8 °F93 %30.32 in2.5 miCalmScattered Clouds
2:35 AM23.0 °F21.2 °F93 %30.32 in0.2 miSW (230°)3.5 mphFogLight Freezing Fog
2:55 AM23.0 °F23.0 °F100 %30.32 in0.5 miCalmFogLight Freezing Fog
3:15 AM24.8 °F24.8 °F100 %30.32 in0.8 miCalmMist
3:35 AM23.0 °F19.4 °F86 %30.32 in0.8 miCalmMostly Cloudy
3:55 AM23.0 °F19.4 °F86 %30.31 in0.2 miCalmFogLight Freezing Fog
4:15 AM24.8 °F23.0 °F93 %30.31 in0.2 miCalmFogLight Freezing Fog
4:35 AM23.0 °F23.0 °F100 %30.32 in0.2 miCalmFogLight Freezing Fog
4:55 AM23.0 °F19.4 °F86 %30.32 in0.2 miCalmFogLight Freezing Fog
5:15 AM23.0 °F21.2 °F93 %30.33 in0.2 miCalmFogLight Freezing Fog
5:35 AM23.0 °F19.4 °F86 %30.33 in0.2 miCalmFogLight Freezing Fog
5:55 AM21.2 °F19.4 °F93 %30.34 in0.5 miCalmFogLight Freezing Fog
6:15 AM23.0 °F19.4 °F86 %30.34 in0.2 miCalmFogLight Freezing Fog
6:35 AM21.2 °F19.4 °F93 %30.34 in0.2 miCalmFogLight Freezing Fog
7:45 AM21.2 °F19.4 °F93 %30.36 in0.2 miCalmFogLight Freezing Fog
8:55 AM23.0 °F23.0 °F100 %30.36 in0.2 miCalmFogLight Freezing Fog
9:50 AM26.6 °F24.8 °F93 %30.36 in0.2 miCalmFogLight Freezing Fog
10:45 AM32.0 °F32.0 °F100 %30.34 in10.0 miCalmClear
11:45 AM39.2 °F37.4 °F93 %30.32 in10.0 miCalmClear
12:55 PM50.0 °F35.6 °F58 %30.29 in10.0 miCalmClear
1:55 PM59.0 °F35.6 °F42 %30.26 in10.0 miCalmClear
2:45 PM62.6 °F32.0 °F32 %30.24 in10.0 miCalmClear
3:55 PM62.6 °F23.0 °F22 %30.23 in10.0 miWNW (290°)9.2 mphClear
4:45 PM60.8 °F26.6 °F27 %30.22 in10.0 miWest (270°)10.4 mphClear
5:50 PM53.6 °F30.2 °F41 %30.22 in10.0 miSE (140°)5.8 mphClear
5:55 PM50.0 °F32.0 °F50 %30.22 in10.0 miSSE (150°)4.6 mphClear
6:15 PM44.6 °F32.0 °F61 %30.22 in10.0 miSouth (170°)5.8 mphClear
6:35 PM42.8 °F30.2 °F61 %30.22 in10.0 miSSW (200°)3.5 mphClear
6:55 PM41.0 °F30.2 °F65 %30.23 in10.0 miSSE (160°)3.5 mphClear
7:15 PM41.0 °F30.2 °F65 %30.23 in10.0 miSSE (160°)4.6 mphClear
7:35 PM37.4 °F28.4 °F70 %30.23 in10.0 miSSE (160°)4.6 mphClear
7:55 PM33.8 °F28.4 °F81 %30.23 in10.0 miSSE (150°)4.6 mphClear
8:15 PM35.6 °F28.4 °F75 %30.23 in10.0 miSSW (200°)4.6 mphClear
8:35 PM35.6 °F28.4 °F75 %30.23 in10.0 miCalmClear
8:55 PM33.8 °F28.4 °F81 %30.22 in10.0 miCalmClear
9:15 PM32.0 °F28.4 °F87 %30.22 in10.0 miCalmClear
9:35 PM32.0 °F28.4 °F87 %30.22 in10.0 miCalmClear
9:55 PM32.0 °F26.6 °F80 %30.22 in10.0 miCalmClear
10:15 PM32.0 °F26.6 °F80 %30.23 in10.0 miSSW (200°)3.5 mphClear
10:35 PM28.4 °F26.6 °F93 %30.22 in10.0 miCalmClear
10:55 PM30.2 °F26.6 °F86 %30.22 in10.0 miCalmClear
11:15 PM28.4 °F26.6 °F93 %30.22 in10.0 miCalmClear
11:35 PM30.2 °F26.6 °F86 %30.22 in10.0 miCalmClear
11:55 PM28.4 °F26.6 °F93 %30.22 in10.0 miCalmClear
Hourly data recorded from KTRK, located miles away from Truckee, California







STORIES FROM OUR PARTNERS